Location: Fours
(44.3167°N, 6.7000°E)
Time: 21:06:48
(UTC+00:00)

N. Korean satellite - Pass Details

Date: 28 September 2021
Orbit: 450 x 494 km, 97.3° (Epoch: 28 October)

Event Time Altitude Azimuth Distance (km) Brightness Sun altitude
Rises 03:40:34 0° 35° (NE) 2,543 11.1 -19.7°
Reaches altitude 10° 03:44:05 10° 73° (ENE) 1,669 10.5 -19.1°
Maximum altitude 03:45:09 11° 90° (E) 1,605 10.3 -18.9°
Drops below altitude 10° 03:46:12 10° 107° (ESE) 1,670 10.1 -18.7°
Sets 03:49:44 0° 145° (SE) 2,556 10.5 -18.1°
